Location: Lussas
(44.6119°N, 4.4726°E)
Time: 14:02:21
(UTC+00:00)

ALOS - Pass Details

Date: 26 November 2020
Orbit: 682 x 686 km, 97.9° (Epoch: 27 January)

Event Time Altitude Azimuth Distance (km) Brightness Sun altitude
Rises 05:11:47 0° 3° (N) 3,064 5.5 -17.6°
Reaches altitude 10° 05:14:15 10° 353° (N) 2,143 4.6 -17.2°
Maximum altitude 05:18:18 30° 293° (WNW) 1,234 3.0 -16.5°
Enters shadow 05:19:01 28° 276° (W) 1,271 3.1 -16.4°
